Regional Weather Roundup
Issued by NWS

Home | Current Version | Previous Version | Text Only | Print | Product List | Glossary On
Versions: 1 2 3 4 5 6 7 8 9 10 11 12 13 14 15 16 17 18 19 20 21 22 23 24 25 26 27 28 29 30 31 32 33 34 35 36 37 38 39 40 41 42 43 44 45 46 47 48 49 50
000
ASCA44 KEWX 270820
RWRMX

LATIN AMERICA AND CARIBBEAN REGIONAL WEATHER ROUNDUP
NATIONAL WEATHER SERVICE AUSTIN/SAN ANTONIO TX
300 AM CDT WED JUL 27 2016

NOTE: "FAIR" INDICATED FEW OR NO CLOUDS BELOW 12,000 FEET WITH NO
SIGNIFICANT WEATHER AND/OR OBSTRUCTIONS TO VISIBILITY.

BAJA CALIFORNIA

CITY           SKY/WX    TMP DP  RH WIND       PRES   REMARKS
MEXICALI       CLEAR     88  68  51 SE6       29.73F HX  91
S.J. DEL CABO    N/A    N/A N/A N/A MISG        N/A
TIJUANA        CLEAR     70  63  78 NW5       29.91F

NORTHWESTERN MEXICO

CITY           SKY/WX    TMP DP  RH WIND       PRES   REMARKS
DURANGO        MOCLDY    61  57  88 S3        30.22
HERMOSILLO     MOCLDY    88  75  66 S5        29.87S HX  97

NORTHEASTERN MEXICO

CITY           SKY/WX    TMP DP  RH WIND       PRES   REMARKS
MONCLOVA         N/A    N/A N/A N/A MISG        N/A
MONTERREY      CLOUDY    77  68  73 CALM      29.90F
REYNOSA          N/A    N/A N/A N/A MISG        N/A
CD. VICTORIA     N/A    N/A N/A N/A MISG        N/A

WESTERN MEXICO

CITY           SKY/WX    TMP DP  RH WIND       PRES   REMARKS
AGUASCALIENTES   N/A    N/A N/A N/A MISG        N/A
COLIMA           N/A    N/A N/A N/A MISG        N/A
GUADALAJARA    MOCLDY    63  59  88 CALM      30.16F
MAZATLAN       MOCLDY    77  75  94 E5        29.86F
P. VALLARTA    MOCLDY    75  75 100 CALM      29.89R
URUAPAN          N/A    N/A N/A N/A MISG        N/A
ZACATECAS        N/A    N/A N/A N/A MISG        N/A

CENTRAL MEXICO

CITY           SKY/WX    TMP DP  RH WIND       PRES   REMARKS
CUERNAVACA       N/A    N/A N/A N/A MISG        N/A
MEXICO CITY    PTCLDY    61  54  77 W7        30.31S
MORELIA        PTCLDY    57  55  94 CALM      30.22F
POZA RICA        N/A    N/A N/A N/A MISG        N/A
QUERETARO      PTCLDY    59  55  88 CALM      30.29
S. LUIS POTOSI PTCLDY    59  54  82 CALM      30.24F
TOLUCA         PTCLDY    54  52  94 CALM      30.38F

SOUTHERN MEXICO

CITY           SKY/WX    TMP DP  RH WIND       PRES   REMARKS
ACAPULCO       MOCLDY    81  75  83 NW5       29.87F
B. DE HUATULCO   N/A    N/A N/A N/A MISG        N/A
P. ESCONDIDO     N/A    N/A N/A N/A MISG        N/A
VERACRUZ         N/A    N/A N/A N/A MISG        N/A

YUCATAN PENINSULA

CITY           SKY/WX    TMP DP  RH WIND       PRES   REMARKS
CAMPECHE         N/A    N/A N/A N/A MISG        N/A
CANCUN         PTCLDY    82  77  83 E6        29.95F HX  91
CHETUMAL         N/A    N/A N/A N/A MISG        N/A
CD. DEL CARMEN   N/A    N/A N/A N/A MISG        N/A
COZUMEL        PTCLDY    73  73 100 CALM      29.94F
MERIDA         PTCLDY    77  73  88 E7        29.92F
MINATITLAN       N/A    N/A N/A N/A MISG        N/A
TAPACHULA        N/A    N/A N/A N/A MISG        N/A

CENTRAL AMERICA

CITY           SKY/WX    TMP DP  RH WIND       PRES   REMARKS

CARIBBEAN

CITY           SKY/WX    TMP DP  RH WIND       PRES   REMARKS
ARUBA          PTCLDY    82  75  78 SE15      29.86S
KINGSTON       PTCLDY    82  73  74 N7        29.89S
NASSAU         PTCLDY   N/A N/A N/A NE5       30.05F
SAN JUAN       PTCLDY    81  79  94 E3        29.98F
SANTO DOMINGO  PTCLDY    75  73  94 N5        29.94S
ST. CROIX      PTCLDY    82  75  78 NE8       29.98
ST. MAARTEN    PTCLDY    82  77  83 E9        29.97S HX  91

$$




USA.gov is the U.S. government's official web portal to all federal, state and local government web resources and services.